Regional Weather Roundup
Issued by NWS

Home | Current Version | Previous Version | Text Only | Print | Product List | Glossary On
Versions: 1 2 3 4 5 6 7 8 9 10 11 12 13 14 15 16 17 18 19 20 21 22 23 24 25 26 27 28 29 30 31 32 33 34 35 36 37 38 39 40 41 42 43 44 45 46 47 48 49 50
000
ASUS43 KDTX 090001
RWRMI
MICHIGAN HOURLY REGIONAL WEATHER ROUNDUP
NATIONAL WEATHER SERVICE DETROIT/PONTIAC MI
700 PM EST THU DEC 08 2016

NOTE: "FAIR" INDICATES FEW OR NO CLOUDS BELOW 12,000 FEET WITH NO
SIGNIFICANT WEATHER AND/OR OBSTRUCTION TO VISIBILITY.

MIZ047>049-052>055-059>063-066>070-074>076-081>083-090100-
SOUTHEAST LOWER MICHIGAN

CITY           SKY/WX    TMP DP  RH WIND       PRES   REMARKS
ADRIAN         CLOUDY    21  17  84 W12       30.25R WCI   9
6HR MIN TEMP:  21; 6HR MAX TEMP:  24; 6HR PCP: TRACE;

ALMA           CLOUDY    28  24  84 W13G18    30.16S WCI  17
ANN ARBOR      CLOUDY    24  20  84 SW17      30.19S WCI  11
BAD AXE        CLOUDY    29  23  77 W14G23    30.08R WCI  19
CARO           CLOUDY    28  22  79 W13G21    30.12R WCI  17
DETROIT CITY   CLOUDY    27  20  75 W13G22    30.18R WCI  16
6HR MIN TEMP:  26; 6HR MAX TEMP:  29; 6HR PCP: TRACE;

DETROIT        FLURRIES  26  20  77 SW18      30.21R WCI  13
6HR MIN TEMP:  26; 6HR MAX TEMP:  28; 6HR PCP: TRACE;

FLINT          CLOUDY    27  21  78 W14G24    30.15S WCI  16
6HR MIN TEMP:  27; 6HR MAX TEMP:  28; 6HR PCP: TRACE;

GROSSE ILE     CLOUDY    25  19  80 W12       30.20S WCI  14
6HR MIN TEMP:  25; 6HR MAX TEMP:  28;

HILLSDALE      LGT SNOW  21  18  86 W9G20     30.22R WCI  11
HOWELL         CLOUDY    26  22  82 W14G23    30.17R WCI  15
6HR MIN TEMP:  25; 6HR MAX TEMP:  27;


CITY           SKY/WX    TMP DP  RH WIND       PRES   REMARKS
JACKSON        FLURRIES  23  18  81 SW14      30.21R WCI  11
6HR MIN TEMP:  23; 6HR MAX TEMP:  25; 6HR PCP: TRACE;

LAMBERTVILLE   FLURRIES  25  18  77 W13G24    30.26R WCI  13
6HR MIN TEMP:  25; 6HR MAX TEMP:  28;

LANSING        FLURRIES  26  21  81 W14       30.19R WCI  14
6HR MIN TEMP:  25; 6HR MAX TEMP:  27; 6HR PCP: TRACE;

LAPEER         NOT AVBL
MASON          CLOUDY    25  22  87 W7G16     30.19R WCI  18
MONROE         LGT SNOW  24  19  83 W14       30.22S WCI  12
MT. CLEMENS    CLOUDY    28  20  71 W15G24    30.14R WCI  16
6HR MIN TEMP:  27; 6HR MAX TEMP:  31; 6HR PCP: TRACE;

PONTIAC        CLOUDY    26  20  77 W16       30.14R WCI  14
6HR MIN TEMP:  25; 6HR MAX TEMP:  28; 6HR PCP: TRACE;

PORT HOPE        N/A     31  25  78 W13G20    30.04R WCI  21
6HR MIN TEMP:  29; 6HR MAX TEMP:  31; 6HR PCP:  0.07;

PORT HURON     CLOUDY    28  19  69 W6G16     30.13R WCI  22
TRI CITIES     PTCLDY    27  23  85 W14       30.14R WCI  16
6HR MIN TEMP:  27; 6HR MAX TEMP:  30;

MIDLAND        FLURRIES  29  22  76 W9        30.13R WCI  20
6HR MIN TEMP:  29; 6HR MAX TEMP:  31;

TROY           CLOUDY    28  19  68 W12G18    30.19R WCI  18
SAGINAW HB     MOCLDY    28  21  74 W14G23    30.14R WCI  17
$$
MIZ043>046-050>051-056>058-064>065-071>073-077>080-090100-
SOUTHWEST LOWER MICHIGAN

CITY           SKY/WX    TMP DP  RH WIND       PRES   REMARKS
BATTLE CREEK   LGT SNOW  25  22  88 W13       30.23R FOG     WCI  14
6HR MIN TEMP:  24; 6HR MAX TEMP:  25; 6HR PCP: TRACE;

BENTON HARBOR  FLURRIES  29  20  69 NW13G24   30.30R WCI  19
6HR MIN TEMP:  24; 6HR MAX TEMP:  29; 6HR PCP: TRACE;

BIG RAPIDS     SNOW      27  25  91 W7        30.15R VSB 1/2 WCI  20
6HR MIN TEMP:  26; 6HR MAX TEMP:  29; 6HR PCP:  0.03;

COLDWATER      FLURRIES  22  18  87 SW13G22   30.25S WCI   9
6HR MIN TEMP:  21; 6HR MAX TEMP:  23;

FREMONT        FLURRIES  29  24  84 W6        30.19R WCI  22
HOLLAND        FLURRIES  31  21  66 W14G23    30.24R WCI  21
6HR MIN TEMP:  26; 6HR MAX TEMP:  31; 6HR PCP:  0.05;

GRAND RAPIDS   CLOUDY    27  24  89 W10       30.21R WCI  17
6HR MIN TEMP:  25; 6HR MAX TEMP:  27; 6HR PCP: TRACE;

IONIA          FAIR      25  23  89 W10       30.18R WCI  15
6HR MIN TEMP:  25; 6HR MAX TEMP:  27;

KALAMAZOO      LGT SNOW  25  20  81 SW13      30.25R WCI  14
6HR MIN TEMP:  24; 6HR MAX TEMP:  25; 6HR PCP: TRACE;

LUDINGTON      LGT SNOW  30  27  89 NW15G25   30.19R WCI  19
6HR MIN TEMP:  28; 6HR MAX TEMP:  32;

MARSHALL       LGT SNOW  24  21  87 W12G17    30.22S WCI  13
6HR MIN TEMP:  24; 6HR MAX TEMP:  25;

MOUNT PLEASANT FLURRIES  28  24  82 W9        30.14R WCI  20
6HR MIN TEMP:  27; 6HR MAX TEMP:  30;

MUSKEGON       CLOUDY    32  22  66 W15G23    30.22R WCI  22
6HR MIN TEMP:  27; 6HR MAX TEMP:  32; 6HR PCP:  0.01;

SOUTH HAVEN    FLURRIES  30  22  72 NW13G20   30.27R WCI  20
$$
MIZ016>042-090100-
NORTHERN LOWER MICHIGAN

CITY           SKY/WX    TMP DP  RH WIND       PRES   REMARKS
ALPENA         LGT SNOW  27  21  78 NW7       30.08R WCI  19
6HR MIN TEMP:  27; 6HR MAX TEMP:  32; 6HR PCP: TRACE;

BEAVER ISLAND  CLOUDY    29  25  86 NW14G22   30.13S WCI  18
6HR MIN TEMP:  29; 6HR MAX TEMP:  32;

BELLAIRE       MOCLDY    30  20  65 NW8       30.14R WCI  22
6HR MIN TEMP:  29; 6HR MAX TEMP:  34;

CADILLAC       LGT SNOW  27  23  83 NW9       30.11R WCI  18
CHARLEVOIX     MOCLDY    31  21  67 NW18G28   30.16R WCI  19
FRANKFORT      PTCLDY    32  22  66 N10G23    30.17R WCI  24
GAYLORD        FLURRIES  25  20  81 NW5       30.07R WCI  19
6HR MIN TEMP:  25; 6HR MAX TEMP:  31; 6HR PCP:  0.02;

GRAYLING       FLURRIES  24  17  74 NW7       30.11R WCI  16
6HR MIN TEMP:  24; 6HR MAX TEMP:  31;

HARBOR SPRINGS MOCLDY    29  19  65 NW7G16    30.11R WCI  22
HOUGHTON LAKE  PTCLDY    25  22  88 NW9       30.10R WCI  15
6HR MIN TEMP:  25; 6HR MAX TEMP:  29; 6HR PCP:  0.08;

MANISTEE       MIX PCPN  31  21  66 NW9       30.17R WCI  23
OSCODA         MOCLDY    28  20  73 NW6       30.07R WCI  21
6HR MIN TEMP:  26; 6HR MAX TEMP:  34;

PELLSTON       PTCLDY    27  17  66 NW12G22   30.11R WCI  17
6HR MIN TEMP:  26; 6HR MAX TEMP:  31; 6HR PCP: TRACE;

ROGERS CITY    FLURRIES  29  24  82 N13G20    30.08R WCI  18
TRAVERSE CITY  FLURRIES  30  24  78 NW9       30.14R WCI  22
6HR MIN TEMP:  29; 6HR MAX TEMP:  33; 6HR PCP:  0.05;

$$
MIZ007>008-015-090100-
EASTERN UPPER MICHIGAN

CITY           SKY/WX    TMP DP  RH WIND       PRES   REMARKS
KINROSS        LGT SNOW  25  23  92 N5        30.07R FOG     WCI  19
6HR MIN TEMP:  25; 6HR MAX TEMP:  30; 6HR PCP:  0.02;

MACKINAC ISLAN CLEAR     26  20  79 NW10G17   30.09R WCI  16
6HR MIN TEMP:  26; 6HR MAX TEMP:  30;

NEWBERRY       LGT SNOW  26  19  76 NW10G20   30.10R WCI  16
6HR MIN TEMP:  25; 6HR MAX TEMP:  28;

S. S. MARIE    CLOUDY    26  15  63 N8G18     30.07R WCI  18
6HR MIN TEMP:  25; 6HR MAX TEMP:  31; 6HR PCP:  0.01;

MUNISING         N/A     31  19  61 N24       30.16R WCI  17
6HR MIN TEMP:  29; 6HR MAX TEMP:  33; 6HR PCP:  0.04;

$$
MIZ004>006-011>014-085-090100-
CENTRAL UPPER MICHIGAN

CITY           SKY/WX    TMP DP  RH WIND       PRES   REMARKS
MANISTIQUE     LGT SNOW  26  25  97 W7        30.14R WCI  18
6HR MIN TEMP:  24; 6HR MAX TEMP:  30;

ESCANABA       CLEAR     27  19  72 NW8       30.20R WCI  19
6HR MIN TEMP:  27; 6HR MAX TEMP:  32; 6HR PCP: TRACE;

MENOMINEE      CLEAR     28  19  69 MISG        N/A
6HR MIN TEMP:  28; 6HR MAX TEMP:  34;

SAWYER-GWINN   FLURRIES  23  19  86 NW9       30.17R WCI  13
$$
MIZ001>003-009>011-084-090100-
WESTERN UPPER MICHIGAN

CITY           SKY/WX    TMP DP  RH WIND       PRES   REMARKS
IRON MOUNTAIN  CLEAR     23  16  74 NW8       30.19R WCI  14
6HR MIN TEMP:  22; 6HR MAX TEMP:  31; 6HR PCP: TRACE;

HOUGHTON       LGT SNOW  22  17  81 N16G23    30.21R VSB 3/4 WCI   8
6HR MIN TEMP:  22; 6HR MAX TEMP:  29; 6HR PCP:  0.01;

COPPER HARBOR    N/A     27  21  78 N24G33    30.21R WCI  12
6HR MIN TEMP:  26; 6HR MAX TEMP:  31;

IRONWOOD       FLURRIES  23  15  71 NW13      30.28S WCI  11
6HR MIN TEMP:  23; 6HR MAX TEMP:  28; 6HR PCP:  0.02;

$$

ABBREVIATIONS USED IN REMARKS
   TC - TEMPERATURE IN CELSIUS
  WCI - WIND CHILL INDEX
   HX - HEAT INDEX
  VSB - VISIBILITY





USA.gov is the U.S. government's official web portal to all federal, state and local government web resources and services.